Location: Bretagne
(43.8474°N, 0.4650°W)
Time: 20:07:24
(UTC+00:00)

IRAS Rocket - Pass Details

Date: 15 January 2026
Orbit: 846 x 875 km, 100.1° (Epoch: 13 February)

Event Time Altitude Azimuth Distance (km) Brightness Sun altitude
Rises 18:57:59 0° 163° (SSE) 3,400 7.3 -22.6°
Reaches altitude 10° 19:00:19 10° 164° (SSE) 2,472 6.5 -23.0°
Maximum altitude 19:05:49 87° 253° (WSW) 864 4.2 -24.0°
Drops below altitude 10° 19:11:24 10° 344° (NNW) 2,508 6.8 -25.0°
Sets 19:13:47 0° 344° (NNW) 3,453 7.5 -25.4°
